Tracking 25703 objects as of 2-Jul-2022
HD Live streaming from Space Station
objects crossing your sky now

COSMOS 2303

Track COSMOS 2303 now!
10-day predictions
COSMOS 2303 is classified as:


NORAD ID: 23445
Int'l Code: 1994-086E
Perigee: 1,420.2 km
Apogee: 1,435.8 km
Inclination: 82.6 °
Period: 114.2 minutes
Semi major axis: 7798 km
RCS: 1.1077 m2 (large)
Launch date: December 26, 1994
Source: Commonwealth of Independent States (former USSR) (CIS)
Launch site: PLESETSK MISSILE AND SPACE COMPLEX (PKMTR)
aabbcc
Your satellite tracking list
Your tracking list is empty




NASA's NSSDC Master Catalog

Two Line Element Set (TLE):
1 23445U 94086E   22183.53447966  .00000010  00000-0 -51039-5 0  9990
2 23445  82.5736 185.8729 0010018 228.1571 254.7990 12.60505544265840
Source of the keplerian elements: AFSPC